Location: Castiglione Fibocchi
(43.5333°N, 11.7667°E)
Time: 18:30:36
(UTC+00:00)

Cosmos 1709 Rocket - Pass Details

Date: 15 August 2020
Orbit: 947 x 1003 km, 82.9° (Epoch: 19 September)

Event Time Altitude Azimuth Distance (km) Brightness Sun altitude
Rises 03:02:51 0° 351° (N) 3,657 7.4 -12.9°
Reaches altitude 10° 03:05:22 10° 351° (N) 2,699 6.6 -12.6°
Maximum altitude 03:11:32 84° 264° (W) 962 3.9 -11.6°
Drops below altitude 10° 03:17:37 10° 177° (S) 2,661 6.0 -10.7°
Sets 03:20:05 0° 177° (S) 3,601 6.7 -10.3°
